| time (UTC) | temp F | wind direction | speed MPH | gust MPH | rain 1hr in | rain 24hr in | rain mn in | humidity % | barometer mb |
| 20260504100106 | 39 | 258 | 13.0 | 23.0 | 0.00 | 0.71 | 0.02 | 96 | 980.6 |
| 20260504081542 | 39 | 200 | 9.0 | 27.0 | 0.02 | 0.71 | 0.02 | 96 | 978.0 |
| 20260504044533 | 38 | 111 | 20.0 | 36.0 | 0.00 | 0.69 | 0.00 | 96 | 977.5 |
| 20260504043028 | 39 | 192 | 21.0 | 34.0 | 0.00 | 0.69 | 0.00 | 96 | 978.4 |
| 20260504041514 | 39 | 160 | 16.0 | 31.0 | 0.00 | 0.69 | 0.00 | 96 | 978.8 |
| 20260504040017 | 39 | 157 | 19.0 | 30.0 | 0.00 | 0.69 | 0.00 | 95 | 979.5 |
| 20260504034509 | 39 | 156 | 16.0 | 29.0 | 0.00 | 0.69 | 0.00 | 95 | 980.2 |
| 20260504033005 | 39 | 147 | 16.0 | 26.0 | 0.00 | 0.69 | 0.00 | 95 | 980.8 |
| 20260504031502 | 39 | 132 | 12.0 | 25.0 | 0.00 | 0.69 | 0.00 | 96 | 981.4 |
| 20260504030059 | 40 | 128 | 15.0 | 25.0 | 0.00 | 0.69 | 0.00 | 97 | 982.0 |
| 20260504024558 | 40 | 157 | 14.0 | 28.0 | 0.00 | 0.69 | 0.69 | 98 | 982.4 |
| 20260504023053 | 41 | 163 | 14.0 | 23.0 | 0.00 | 0.69 | 0.69 | 98 | 983.1 |
| 20260504021550 | 41 | 154 | 12.0 | 23.0 | 0.01 | 0.69 | 0.69 | 99 | 983.5 |
| 20260504020059 | 41 | 152 | 13.0 | 24.0 | 0.01 | 0.69 | 0.69 | 99 | 983.9 |
| 20260504014551 | 42 | 153 | 15.0 | 27.0 | 0.02 | 0.69 | 0.69 | 99 | 984.6 |
| 20260504013042 | 40 | 149 | 13.0 | 31.0 | 0.03 | 0.69 | 0.69 | 99 | 985.0 |
| 20260504011547 | 40 | 99 | 15.0 | 28.0 | 0.03 | 0.68 | 0.68 | 99 | 985.3 |
| 20260504010041 | 40 | 91 | 15.0 | 29.0 | 0.04 | 0.68 | 0.68 | 99 | 985.7 |
| 20260504004538 | 39 | 89 | 16.0 | 32.0 | 0.05 | 0.66 | 0.66 | 99 | 986.3 |
| 20260504003035 | 39 | 70 | 12.0 | 23.0 | 0.14 | 0.65 | 0.65 | 99 | 987.1 |
| 20260504001536 | 38 | 109 | 12.0 | 26.0 | 0.19 | 0.65 | 0.65 | 99 | 987.8 |
| 20260504000029 | 38 | 85 | 10.0 | 22.0 | 0.28 | 0.64 | 0.64 | 99 | 989.0 |
| 20260503234528 | 37 | 72 | 11.0 | 22.0 | 0.31 | 0.60 | 0.60 | 99 | 989.6 |
| 20260503233023 | 37 | 86 | 11.0 | 20.0 | 0.26 | 0.51 | 0.51 | 98 | 990.3 |
| 20260503231522 | 37 | 10 | 6.0 | 18.0 | 0.23 | 0.46 | 0.46 | 98 | 991.5 |
| 20260503230018 | 38 | 46 | 9.0 | 19.0 | 0.13 | 0.35 | 0.35 | 99 | 993.1 |
| 20260503224515 | 37 | 56 | 7.0 | 18.0 | 0.11 | 0.28 | 0.28 | 99 | 993.7 |
| 20260503223011 | 37 | 103 | 6.0 | 19.0 | 0.14 | 0.24 | 0.24 | 98 | 995.0 |
| 20260503221509 | 37 | 67 | 7.0 | 14.0 | 0.14 | 0.22 | 0.22 | 98 | 995.3 |
| 20260503220008 | 37 | 111 | 6.0 | 16.0 | 0.16 | 0.21 | 0.21 | 98 | 995.6 |
| 20260503214522 | 37 | 103 | 7.0 | 19.0 | 0.13 | 0.17 | 0.17 | 98 | 995.9 |
| 20260503213005 | 36 | 76 | 11.0 | 23.0 | 0.06 | 0.10 | 0.10 | 98 | 996.0 |
| 20260503211502 | 36 | 112 | 8.0 | 18.0 | 0.03 | 0.07 | 0.07 | 98 | 997.5 |
| 20260503210100 | 36 | 82 | 9.0 | 19.0 | 0.02 | 0.06 | 0.06 | 98 | 997.9 |
| 20260503204558 | 36 | 80 | 7.0 | 18.0 | 0.02 | 0.04 | 0.04 | 98 | 999.0 |
| 20260503203056 | 36 | 109 | 8.0 | 18.0 | 0.02 | 0.04 | 0.04 | 97 | 999.5 |
| 20260503201553 | 35 | 57 | 7.0 | 17.0 | 0.02 | 0.04 | 0.04 | 97 | 1000.7 |
| 20260503200101 | 35 | 73 | 8.0 | 15.0 | 0.01 | 0.03 | 0.03 | 97 | 1001.2 |
| 20260503194556 | 35 | 62 | 4.0 | 15.0 | 0.00 | 0.02 | 0.02 | 97 | 1001.8 |
| 20260503193057 | 34 | 111 | 8.0 | 15.0 | 0.01 | 0.02 | 0.02 | 96 | 1002.4 |
| 20260503191549 | 34 | 85 | 5.0 | 13.0 | 0.02 | 0.02 | 0.02 | 96 | 1002.8 |
| 20260503190049 | 35 | 68 | 4.0 | 14.0 | 0.02 | 0.02 | 0.02 | 95 | 1004.3 |
| 20260503184554 | 35 | 137 | 5.0 | 12.0 | 0.02 | 0.02 | 0.02 | 95 | 1004.3 |
| 20260503183043 | 35 | 70 | 3.0 | 14.0 | 0.00 | 0.01 | 0.01 | 94 | 1005.9 |
| 20260503181555 | 36 | 101 | 5.0 | 12.0 | 0.00 | 0.01 | 0.01 | 93 | 1006.3 |
| 20260503180048 | 37 | 106 | 3.0 | 10.0 | 0.00 | 0.01 | 0.01 | 93 | 1007.0 |
| 20260503174544 | 38 | 100 | 4.0 | 10.0 | 0.00 | 0.01 | 0.01 | 93 | 1008.2 |
| 20260503171516 | 38 | 87 | 4.0 | 7.0 | 0.00 | 0.01 | 0.01 | 91 | 1008.9 |